#timestamp,LO_Frequency,Hit,StdDev 
1517396415.9,286046999.4,N
1517396435.7,286047000.4,N
1517396455.6,286047002.8,N
1517396475.4,286047001.6,N
1517396495.3,286047002.7,N
1517396515.1,286047000.2,N
1517396516.0,286047000.2,N
1517396535.8,286047000.1,N
1517396555.7,286046999.8,N
1517396575.5,286047002.1,N
1517396595.3,286047000.3,N
1517396615.2,286046999.9,N
1517396635.0,286046997.0,N
1517396635.9,286046997.0,N
1517396655.8,286046997.8,N
1517396675.6,286046994.9,N
1517396695.4,286046991.8,Y
1517396715.3,286046992.8,P
1517396735.1,286046988.9,P
1517396755.9,286046990.9,N
1517396775.7,286046990.7,N
1517396795.5,286046990.5,N
1517396815.4,286046989.6,Y
1517396835.2,286046995.9,P
1517396855.1,286046993.5,P
1517396856.0,286046993.5,P
1517396875.8,286046993.7,Y
1517396895.6,286046999.7,P
1517396915.5,286047000.5,N
1517396935.3,286046998.1,N
1517396955.1,286047002.5,N
1517396975.9,286047002.0,N
1517396995.7,286047003.8,N
1517397015.6,286047002.6,N
1517397035.4,286047000.5,N
1517397055.2,286047001.4,N
1517397075.1,286047003.5,N
1517397076.0,286047003.5,N
1517397095.8,286047003.3,N
1517397115.7,286047002.5,N
1517397135.5,286047002.0,N
1517397155.3,286047000.2,N
1517397175.2,286047002.4,N
1517397195.0,286047000.4,N
1517397195.9,286047000.4,N
1517397215.7,286046998.7,N
1517397235.6,286047000.9,N
1517397285.5,286046996.6,E
1517397295.4,286046998.8,N
1517397315.2,286047000.8,P
1517397335.1,286046999.9,N
1517397336.0,286046999.9,N
1517397355.8,286047002.0,N
1517397375.6,286047000.1,N
1517397395.5,286046998.1,N
1517397415.3,286047000.6,N
1517397435.1,286046999.8,N
1517397455.9,286047000.0,N
1517397475.7,286047002.6,N
1517397495.6,286047000.9,N
1517397515.4,286046998.3,N
1517397535.2,286046997.1,N
1517397555.1,286046995.6,Y
1517397556.0,286046995.6,P
1517397575.8,286046995.0,N
1517397595.7,286046997.6,N
1517397615.5,286046993.3,Y
1517397635.3,286046999.0,P
1517397655.2,286046999.5,N
1517397675.0,286046997.6,N
1517397675.9,286046997.6,N
1517397695.8,286046996.0,Y
1517397715.6,286046996.6,P
1517397735.4,286046997.9,N
1517397755.3,286046995.8,P
1517397775.1,286046993.8,Y
1517397795.8,286046996.2,P
1517397815.7,286046995.9,P
1517397835.5,286046995.1,P
1517397855.4,286046997.7,Y
1517397875.2,286047002.0,P
1517397895.0,286047004.4,N
1517397895.9,286047004.4,N
1517397915.8,286047005.4,N
1517397935.6,286047005.1,N
1517397955.5,286047003.2,N
1517397975.3,286047005.8,N
1517397995.1,286047003.2,N
1517398015.9,286047002.7,N
1517398035.7,286047000.6,N
1517398055.5,286046999.7,N
1517398075.4,286046996.5,N
1517398095.2,286046994.9,N
1517398115.1,286046995.9,N
1517398116.0,286046995.9,N
1517398135.8,286046994.2,N
1517398155.6,286046993.7,N
1517398175.5,286046994.2,N
1517398195.3,286046992.4,N
1517398215.2,286046994.3,N
1517398235.9,286046994.0,N
1517398255.7,286046996.3,N
1517398275.6,286046995.5,N
1517398295.4,286046995.9,N
1517398315.2,286046992.9,N
1517398335.1,286046992.8,N
1517398336.0,286046992.8,N
1517398355.8,286046990.6,N
1517398375.7,286046989.9,N
1517398395.5,286046987.3,N
1517398415.3,286046988.2,N
1517398435.2,286046988.0,N
1517398455.0,286046986.2,N
1517398455.9,286046986.2,N
1517398475.8,286046983.8,Y
1517398495.6,286046988.6,P
1517398515.4,286046989.3,P
1517398535.3,286046988.9,P
1517398555.1,286046990.7,Y
1517398575.9,286047002.4,P
1517398595.7,286047000.6,N
1517398615.5,286046998.1,N
1517398635.4,286046997.3,N
1517398655.2,286046997.8,N
1517398675.0,286046995.6,N
1517398676.0,286046995.6,N
1517398695.8,286046996.3,N
1517398715.6,286046993.5,N
1517398735.5,286046993.2,N
1517398755.3,286046989.0,Y
1517398775.1,286046994.6,P
1517398795.9,286046994.3,P
1517398815.7,286046993.2,P
1517398835.6,286046990.6,Y
1517398855.4,286046996.6,P
1517398875.2,286046997.4,N
1517398895.1,286046996.1,P
1517398896.0,286046996.1,Y
1517398915.8,286046999.5,P
1517398935.7,286047000.9,N
1517398955.5,286047000.6,N
1517398975.3,286047001.2,N
1517398995.2,286046996.8,N
1517399015.0,286046997.4,N
1517399015.9,286046997.4,N
1517399035.8,286046997.5,N
1517399055.6,286046993.8,Y
1517399075.4,286046996.2,P
1517399095.3,286046993.7,P
1517399115.1,286046993.5,P
1517399135.9,286046994.2,N
1517399155.7,286046994.8,N
1517399175.5,286046993.6,Y
1517399195.4,286046999.0,P
1517399215.2,286046999.0,N
1517399235.0,286046998.4,N
1517399235.9,286046998.4,N
1517399255.8,286046999.6,N
1517399275.6,286047000.8,N
1517399295.5,286046998.3,N
1517399315.3,286047000.9,N
1517399335.1,286047000.5,N
1517399355.9,286046999.0,N
1517399375.7,286046998.0,N
1517399395.6,286046994.9,Y
1517399415.4,286046997.0,P
1517399435.2,286046997.0,P
1517399455.1,286046999.4,N
1517399456.0,286046999.4,N
1517399475.8,286046999.4,N
1517399495.6,286046997.3,N
1517399515.5,286046996.8,N
1517399535.3,286046999.2,N
1517399555.2,286046997.0,N
1517399575.9,286046996.4,Y
1517399595.7,286046997.9,P
1517399615.6,286046993.8,P
1517399635.4,286046992.0,P
1517399655.3,286046992.3,N
1517399675.1,286046993.1,N
1517399676.0,286046993.1,N
1517399695.8,286046990.6,Y
1517399715.7,286046995.4,P
1517399735.5,286046995.6,P
1517399755.3,286046993.4,P
1517399775.2,286046993.3,Y
1517399795.0,286047000.1,P
1517399795.9,286047000.1,N
1517399815.8,286046999.8,N
1517399835.6,286047000.0,N
1517399855.4,286046998.2,N
1517399875.3,286046998.3,N
1517399895.1,286046998.9,N
1517399915.9,286046998.4,N
1517399935.7,286046997.1,N
1517399955.5,286046996.6,N
1517399975.4,286046994.9,Y
1517399995.2,286046995.3,P
